Overview Statistics Trail Chart Weather Telemetry Raw packets
 

This is the latest recevied weather packets stored in our database for station/object DH2PG-6. If no packets are shown the sender has not sent any weather packets the latest 10 day(s).

<< 5 6 7 8 9 10 11 >>
Time Temp. Humidity Pressure Rain* Wind** Luminosity Snow
1788611516 18.33° C 60% 1020.5 hPa 0 mm - - -
1788611215 18.33° C 60% 1020.2 hPa 0 mm - - -
1788610915 18.33° C 58% 1020.3 hPa 0 mm - - -
1788610615 18.33° C 60% 1020.4 hPa 0 mm - - -
1788610315 18.33° C 60% 1020.2 hPa 0 mm - - -
1788610014 17.78° C 61% 1020.4 hPa 0 mm - - -
1788609714 17.78° C 60% 1020.2 hPa 0 mm - - -
1788609414 17.78° C 61% 1020.2 hPa 0 mm - - -
1788609114 17.78° C 62% 1020.3 hPa 0 mm - - -
1788608813 17.78° C 63% 1020.2 hPa 0 mm - - -
1788608513 17.78° C 63% 1020.4 hPa 0 mm - - -
1788608213 17.78° C 62% 1020.2 hPa 0 mm - - -
1788607912 17.78° C 64% 1020.2 hPa 0 mm - - -
1788607612 17.78° C 62% 1020.3 hPa 0 mm - - -
1788607012 17.78° C 65% 1020.5 hPa 0 mm - - -
1788606711 17.78° C 65% 1020.2 hPa 0 mm - - -
1788606111 17.22° C 66% 1020.2 hPa 0 mm - - -
1788605810 17.22° C 68% 1020.2 hPa 0 mm - - -
1788605510 16.67° C 68% 1020.1 hPa 0 mm - - -
1788605210 16.67° C 69% 1020.2 hPa 0 mm - - -
1788604910 16.67° C 71% 1019.9 hPa 0 mm - - -
1788604609 16.67° C 70% 1020.1 hPa 0 mm - - -
1788604309 16.67° C 72% 1020 hPa 0 mm - - -
1788604009 16.11° C 72% 1020.1 hPa 0 mm - - -
1788603709 16.11° C 74% 1020.1 hPa 0 mm - - -

* Rain latest hour (hover to see other rain measurements)
** Current wind speed in m/s (hover to see current wind gust speed)